カタログに戻る

STARLINK-37603

運用中通信VLEO
NORAD 69846·PAYLOAD·🇺🇸 United States

打ち上げ Jul 5, 2026 から Cape Canaveral Space Force Station

Loading…

次のパス (今後24時間)

TLE

最新Source: CelesTrak SupGP

元期: Sep 14, 2026, 21:17 UTC

1 69846C 26154AD  26257.88729167 -.00006517  00000+0 -19265-3 0  2574
2 69846  53.1584 357.6297 0001173  80.8271 171.2916 15.34377434    17

AllMySatでSTARLINK-37603をリアルタイム追跡

Download on the App Store